Weather History for KTSP - June, 2013

Change the Weather History Date:

Wednesday, June 19, 2013

  Actual Average Record
Temperature  
Mean Temperature 55 °F -  
Max Temperature 66 °F 81 °F - (-1)
Min Temperature 44 °F 53 °F - (-1)
Degree Days  
Heating Degree Days 10    
Growing Degree Days 5 (Base 50)    
Moisture  
Dew Point 36 °F    
Average Humidity 51    
Maximum Humidity 76    
Minimum Humidity 28    
Precipitation  
Precipitation 0.00 in - - ()
Sea Level Pressure  
Sea Level Pressure 30.01 in    
Wind  
Wind Speed 19 mph (WNW)    
Max Wind Speed 26 mph    
Max Gust Speed 33 mph    
Visibility 10 miles    
Events Thunderstorm    
Averages and records for this station are not official NWS values.
T = Trace of Precipitation, MM = Missing Value Source: NWS Daily Summary

Daily Weather History Graph

Daily Weather History Graph

Search for Another Location

Airport or City:

Trip Planner

Search our weather history database for the weather conditions in past years. The results will help you decide how hot, cold, wet, or windy it might be!

Date:

Astronomy

Jun. 19, 2013 Rise Set
Actual Time 5:39 AM PDT 8:10 PM PDT
Civil Twilight 5:09 AM PDT 8:40 PM PDT
Nautical Twilight 4:32 AM PDT 9:17 PM PDT
Astronomical Twilight 3:52 AM PDT 9:58 PM PDT
Moon 4:14 PM PDT (6/19) 2:20 AM PDT (6/19)
Length of Visible Light 15h 31m
Length of Day
14h 31m
Waxing Gibbous, 81% of the Moon is Illuminated
Jun 19
Waxing Gibbous
Jun 23
Full
Jun 29
Last Quarter
Jul 8
New
Jul 15
First Quarter

Hourly Weather History & Observations

Time (PDT) Temp. Windchill Dew Point Humidity Pressure Visibility Wind Dir Wind Speed Gust Speed Precip Events Conditions
12:15 AM 57.2 °F - 37.4 °F 48% 29.97 in 10.0 mi West 17.3 mph 24.2 mph N/A   Clear
12:35 AM 55.4 °F - 41.0 °F 58% 29.97 in 10.0 mi West 24.2 mph 29.9 mph N/A   Clear
12:55 AM 53.6 °F - 42.8 °F 67% 29.97 in 10.0 mi West 26.5 mph 32.2 mph N/A   Clear
1:15 AM 53.6 °F - 42.8 °F 67% 29.97 in 10.0 mi West 24.2 mph 33.4 mph N/A   Clear
1:35 AM 51.8 °F - 41.0 °F 67% 29.97 in 9.0 mi West 20.7 mph 33.4 mph N/A   Clear
1:55 AM 50.0 °F - 41.0 °F 71% 29.97 in 10.0 mi West 18.4 mph 31.1 mph N/A   Clear
2:15 AM 50.0 °F - 41.0 °F 71% 29.97 in 10.0 mi West 21.9 mph 26.5 mph N/A   Clear
2:35 AM 50.0 °F - 39.2 °F 66% 29.97 in 10.0 mi WSW 23.0 mph 26.5 mph N/A   Clear
2:55 AM 48.2 °F - 39.2 °F 71% 29.97 in 10.0 mi West 21.9 mph 27.6 mph N/A   Clear
3:15 AM 48.2 °F - 39.2 °F 71% 29.97 in 10.0 mi WNW 17.3 mph - N/A   Clear
3:35 AM 46.4 °F 39.8 °F 39.2 °F 76% 29.97 in 9.0 mi WNW 16.1 mph 23.0 mph N/A   Clear
3:55 AM 46.4 °F 39.2 °F 39.2 °F 76% 29.97 in 9.0 mi WNW 18.4 mph 27.6 mph N/A   Clear
4:15 AM 46.4 °F 39.0 °F 39.2 °F 76% 29.98 in 10.0 mi WNW 19.6 mph 25.3 mph N/A   Clear
4:35 AM 46.4 °F 39.8 °F 37.4 °F 71% 29.98 in 10.0 mi West 16.1 mph 23.0 mph N/A   Clear
4:55 AM 46.4 °F 39.8 °F 37.4 °F 71% 29.99 in 10.0 mi WNW 16.1 mph - N/A   Clear
5:15 AM 44.6 °F 37.8 °F 37.4 °F 76% 30.00 in 10.0 mi WNW 15.0 mph - N/A   Clear
5:35 AM 44.6 °F 37.8 °F 37.4 °F 76% 30.00 in 10.0 mi WNW 15.0 mph - N/A   Clear
5:55 AM 44.6 °F 37.8 °F 37.4 °F 76% 30.00 in 10.0 mi WNW 15.0 mph - N/A   Clear
6:15 AM 44.6 °F 37.2 °F 37.4 °F 76% 30.00 in 10.0 mi WNW 17.3 mph - N/A   Clear
6:35 AM 44.6 °F 37.4 °F 37.4 °F 76% 30.01 in 10.0 mi NW 16.1 mph 21.9 mph N/A   Clear
6:55 AM 44.6 °F 37.4 °F 37.4 °F 76% 30.01 in 10.0 mi NW 16.1 mph 21.9 mph N/A   Clear
7:15 AM 46.4 °F 39.5 °F 37.4 °F 71% 30.02 in 10.0 mi NW 17.3 mph 23.0 mph N/A   Clear
7:35 AM 46.4 °F 39.8 °F 37.4 °F 71% 30.02 in 10.0 mi NW 16.1 mph - N/A   Clear
7:55 AM 50.0 °F - 37.4 °F 62% 30.02 in 10.0 mi NW 16.1 mph - N/A   Clear
8:15 AM 51.8 °F - 37.4 °F 58% 30.02 in 10.0 mi NW 13.8 mph 21.9 mph N/A   Clear
8:35 AM 53.6 °F - 37.4 °F 54% 30.03 in 10.0 mi NW 12.7 mph 19.6 mph N/A   Clear
8:55 AM 55.4 °F - 37.4 °F 51% 30.03 in 10.0 mi NW 12.7 mph 24.2 mph N/A   Clear
9:15 AM 55.4 °F - 37.4 °F 51% 30.03 in 10.0 mi NW 15.0 mph - N/A   Clear
9:35 AM 55.4 °F - 37.4 °F 51% 30.03 in 10.0 mi NW 16.1 mph 21.9 mph N/A   Clear
9:55 AM 55.4 °F - 37.4 °F 51% 30.03 in 10.0 mi NW 17.3 mph - N/A   Clear
10:15 AM 57.2 °F - 37.4 °F 48% 30.04 in 10.0 mi NW 17.3 mph - N/A   Clear
10:35 AM 57.2 °F - 37.4 °F 48% 30.04 in 10.0 mi NW 18.4 mph 23.0 mph N/A   Clear
10:55 AM 59.0 °F - 37.4 °F 45% 30.03 in 10.0 mi NW 19.6 mph 24.2 mph N/A   Clear
11:15 AM 59.0 °F - 37.4 °F 45% 30.03 in 10.0 mi NNW 17.3 mph 23.0 mph N/A   Clear
11:35 AM 60.8 °F - 35.6 °F 39% 30.03 in 10.0 mi NW 18.4 mph 25.3 mph N/A   Clear
11:55 AM 62.6 °F - 35.6 °F 37% 30.03 in 10.0 mi NW 20.7 mph 26.5 mph N/A   Clear
12:15 PM 62.6 °F - 33.8 °F 34% 30.03 in 10.0 mi NW 19.6 mph 26.5 mph N/A   Clear
12:35 PM 62.6 °F - 35.6 °F 37% 30.03 in 10.0 mi NW 19.6 mph 28.8 mph N/A   Clear
12:55 PM 64.4 °F - 33.8 °F 32% 30.03 in 10.0 mi NW 19.6 mph 26.5 mph N/A   Clear
1:15 PM 64.4 °F - 32.0 °F 30% 30.03 in 10.0 mi NNW 21.9 mph 26.5 mph N/A Thunderstorm Clear
1:35 PM 64.4 °F - 32.0 °F 30% 30.03 in 10.0 mi NW 20.7 mph 25.3 mph N/A   Clear
2:15 PM 66.2 °F - 32.0 °F 28% 30.02 in 10.0 mi WNW 19.6 mph 26.5 mph N/A   Clear
2:35 PM 66.2 °F - 32.0 °F 28% 30.03 in 10.0 mi NW 23.0 mph 28.8 mph N/A   Clear
2:55 PM 66.2 °F - 33.8 °F 30% 30.02 in 10.0 mi WNW 20.7 mph 28.8 mph N/A   Clear
3:15 PM 66.2 °F - 35.6 °F 32% 30.02 in 10.0 mi WNW 21.9 mph 27.6 mph N/A   Clear
3:35 PM 64.4 °F - 35.6 °F 34% 30.02 in 10.0 mi NW 25.3 mph 28.8 mph N/A   Clear
3:55 PM 64.4 °F - 33.8 °F 32% 30.02 in 10.0 mi NW 20.7 mph 29.9 mph N/A   Clear
4:15 PM 64.4 °F - 35.6 °F 34% 30.02 in 10.0 mi NW 21.9 mph 29.9 mph N/A   Clear
4:35 PM 64.4 °F - 33.8 °F 32% 30.01 in 10.0 mi NW 20.7 mph 27.6 mph N/A   Clear
4:55 PM 64.4 °F - 33.8 °F 32% 30.02 in 10.0 mi NW 20.7 mph 29.9 mph N/A   Clear
5:15 PM 64.4 °F - 32.0 °F 30% 30.01 in 10.0 mi NW 20.7 mph 26.5 mph N/A   Clear
5:35 PM 64.4 °F - 33.8 °F 32% 30.00 in 10.0 mi NW 19.6 mph 26.5 mph N/A   Clear
5:55 PM 64.4 °F - 33.8 °F 32% 30.00 in 10.0 mi NW 20.7 mph 29.9 mph N/A   Clear
6:15 PM 62.6 °F - 33.8 °F 34% 30.01 in 10.0 mi NW 17.3 mph 27.6 mph N/A   Clear
6:35 PM 62.6 °F - 33.8 °F 34% 30.01 in 9.0 mi NW 19.6 mph 25.3 mph N/A   Clear
6:55 PM 62.6 °F - 33.8 °F 34% 30.01 in 10.0 mi NW 18.4 mph 25.3 mph N/A   Clear
7:15 PM 60.8 °F - 33.8 °F 36% 30.01 in 10.0 mi NW 19.6 mph 26.5 mph N/A   Clear
7:35 PM 59.0 °F - 33.8 °F 39% 30.01 in 10.0 mi WNW 18.4 mph 27.6 mph N/A   Clear
7:55 PM 59.0 °F - 33.8 °F 39% 30.01 in 10.0 mi WNW 17.3 mph 27.6 mph N/A   Clear
8:15 PM 57.2 °F - 33.8 °F 41% 30.02 in 10.0 mi WNW 16.1 mph 21.9 mph N/A   Clear
8:35 PM 57.2 °F - 35.6 °F 44% 30.02 in 10.0 mi West 16.1 mph 20.7 mph N/A   Clear
8:55 PM 55.4 °F - 35.6 °F 47% 30.03 in 10.0 mi West 15.0 mph - N/A   Clear
9:15 PM 55.4 °F - 35.6 °F 47% 30.03 in 10.0 mi West 13.8 mph - N/A   Clear
9:35 PM 55.4 °F - 35.6 °F 47% 30.03 in 10.0 mi West 16.1 mph 23.0 mph N/A   Clear
9:55 PM 55.4 °F - 35.6 °F 47% 30.03 in 10.0 mi West 15.0 mph 20.7 mph N/A   Clear
10:15 PM 53.6 °F - 35.6 °F 51% 30.03 in 10.0 mi West 17.3 mph 20.7 mph N/A   Clear
10:35 PM 55.4 °F - 35.6 °F 47% 30.04 in 10.0 mi West 11.5 mph - N/A   Clear
10:55 PM 53.6 °F - 35.6 °F 51% 30.03 in 10.0 mi West 12.7 mph - N/A   Clear
11:15 PM 53.6 °F - 35.6 °F 51% 30.03 in 10.0 mi WNW 10.4 mph - N/A   Clear
11:35 PM 53.6 °F - 35.6 °F 51% 30.03 in 10.0 mi WNW 16.1 mph 19.6 mph N/A   Clear
11:55 PM 53.6 °F - 35.6 °F 51% 30.04 in 10.0 mi WNW 13.8 mph - N/A   Clear